Theta_e
318 317 316 317 319 320 320 320 321 322 322 323 324 324 323 324 326 327 326 328 327 327 327 327 325 328 330 331 330 328 328 328 330 330 330 330 329 328 326 325 324 322 323 322
319 319 319 319 319 319 319 319 320 322 323 323 325 324 325 324 325 327 326 326 328 328 327 328 327 329 331 332 331 330 331 329 330 330 330 330 329 327 327 325 324 322 321 321
320 320 321 321 320 320 319 319 319 320 322 323 323 323 325 324 325 326 326 326 326 327 327 328 328 330 332 334 333 332 332 330 329 330 331 328 327 326 326 326 325 324 322 321
320 320 320 321 320 320 320 320 320 319 320 322 323 322 325 325 325 325 326 325 325 325 327 328 329 330 332 333 334 333 333 334 328 332 330 329 325 330 330 326 324 323 322 321
320 320 320 320 321 321 319 321 320 319 319 321 320 322 323 325 325 324 326 326 326 325 325 327 328 329 329 331 333 333 334 336 331 330 331 328 330 326 326 325 324 324 323 320
321 320 321 321 321 321 320 320 321 322 322 323 323 322 323 323 326 326 326 326 326 325 325 326 326 328 329 329 332 333 334 335 333 332 328 329 328 327 326 326 326 325 323 320
320 320 320 321 320 321 320 321 325 323 325 327 324 322 324 326 326 326 328 327 327 326 325 325 326 326 329 329 329 332 334 334 333 333 330 330 330 329 328 328 327 325 322 321
321 320 320 320 321 321 321 321 325 326 328 323 324 325 325 327 326 325 326 328 327 326 325 326 327 328 326 329 330 332 333 334 333 332 331 329 329 328 327 326 325 323 322 321
323 321 320 321 321 321 321 322 322 325 324 325 325 326 326 326 326 325 325 326 327 326 326 326 327 329 326 329 330 330 332 333 333 331 330 329 328 327 327 325 325 324 322 321
326 329 323 321 323 322 322 321 325 327 328 329 325 327 327 328 327 326 324 327 326 328 326 326 327 328 328 327 330 330 332 332 332 330 330 329 328 327 326 325 324 323 322 321
324 327 327 325 323 323 323 322 322 326 326 331 330 327 330 332 329 328 327 327 328 326 325 326 326 327 328 328 329 329 330 330 329 330 330 328 328 327 326 325 323 323 322 320
321 324 329 326 322 321 324 323 323 326 326 328 328 327 327 329 327 329 327 327 327 325 323 325 326 327 327 328 329 328 328 327 327 329 329 329 327 326 325 324 324 322 321 320
315 322 327 325 324 323 325 322 324 328 328 329 328 326 329 326 326 328 329 327 325 325 323 325 326 326 326 327 327 327 327 327 326 328 328 327 326 325 325 324 323 322 321 319
310 315 320 325 323 321 319 319 319 325 332 328 327 326 324 325 328 328 329 329 327 327 326 324 327 327 326 327 327 327 327 326 326 327 327 326 326 324 323 324 322 320 318 317
311 314 313 313 315 315 315 315 317 322 325 329 327 327 326 327 329 326 326 327 326 326 326 327 327 327 327 327 326 325 327 327 326 325 325 324 324 323 323 321 320 318 316 316
307 311 309 311 311 311 312 312 314 316 320 323 325 326 325 326 323 325 326 326 326 324 325 324 327 327 328 325 327 325 325 325 325 325 324 324 323 322 321 320 317 316 315 315
305 306 307 310 309 309 313 312 312 313 315 318 320 320 322 323 321 323 323 324 325 324 324 324 326 329 330 328 326 325 325 327 326 325 324 323 322 321 319 317 315 314 314 314
305 305 305 309 307 310 309 309 311 313 313 315 316 317 317 318 318 317 316 318 319 320 322 323 324 325 324 326 325 325 324 327 326 325 324 323 321 319 317 315 313 313 314 313
306 306 307 309 309 306 306 307 308 309 312 312 313 315 315 315 313 315 315 316 318 320 323 324 323 325 325 326 324 325 327 326 325 324 323 320 318 316 314 313 313 312 311 311
304 306 308 309 309 310 307 306 306 308 311 309 310 314 314 312 313 313 317 317 317 318 317 320 323 323 323 324 326 327 327 325 323 322 319 318 315 313 312 312 311 309 308 307
304 307 307 309 309 309 306 306 307 309 309 311 311 312 312 314 315 317 316 314 314 317 318 317 317 319 321 321 325 327 325 323 321 319 315 314 312 312 312 310 309 308 307 307
306 307 309 307 308 307 305 308 308 309 310 310 311 311 312 314 315 316 315 315 316 316 315 317 318 319 320 323 324 323 322 320 316 314 313 312 312 310 309 308 309 308 307 307
308 307 309 306 307 305 305 307 309 306 308 309 309 310 310 310 312 312 313 315 314 314 315 316 318 319 322 322 321 321 320 316 314 312 312 311 309 309 309 308 307 307 307 307
305 306 307 308 306 305 306 306 306 307 306 307 308 309 310 309 310 310 312 313 313 312 314 315 316 320 320 318 318 317 315 312 311 311 310 309 309 309 307 307 306 307 306 305
304 304 305 307 306 306 305 305 305 305 308 307 308 308 309 308 309 310 310 312 312 313 312 314 318 320 317 317 314 313 311 310 310 309 309 308 308 307 306 306 305 304 304 303
304 304 306 308 306 308 307 305 305 306 306 308 307 306 307 307 308 310 310 311 311 311 312 316 317 317 316 314 312 311 310 308 308 308 307 307 305 305 305 304 304 303 302 302
Wind_Speed
17 13 17 21 21 20 18 22 21 16 25 19 22 18 18 19 17 23 18 16 18 17 16 24 24 27 29 28 26 23 24 25 20 17 13 12 12 11 6 4 2 1 3 4
17 19 20 20 20 22 21 23 23 21 18 21 20 20 18 17 19 16 19 18 16 18 17 18 26 29 31 29 28 25 25 28 23 19 16 15 13 11 8 7 5 2 2 6
20 20 23 20 19 21 23 22 21 23 18 18 17 16 11 14 20 19 17 14 16 17 19 17 21 29 31 31 31 28 27 28 26 19 16 13 12 9 8 9 7 6 2 4
21 20 23 12 15 19 18 16 18 18 17 16 16 14 16 19 21 20 18 19 20 20 16 19 20 27 32 31 30 28 26 26 28 20 18 15 14 12 10 10 5 4 6 6
22 21 20 19 19 18 18 17 19 21 19 19 23 15 14 17 24 24 20 18 17 13 15 19 19 30 33 33 32 29 27 24 24 21 19 20 14 8 6 7 6 5 9 9
23 21 19 18 15 17 17 18 19 15 14 15 20 19 16 15 17 16 20 21 18 17 16 15 23 31 35 36 34 35 31 26 23 23 21 17 17 12 10 7 7 8 7 5
21 25 22 17 14 17 21 12 9 11 13 13 19 19 16 16 13 6 15 19 20 18 17 16 19 21 34 37 35 35 34 30 27 21 20 14 13 13 10 10 8 9 9 8
17 19 24 19 21 20 15 15 12 14 13 17 21 21 18 21 23 5 7 8 9 7 6 6 7 6 17 34 34 34 34 31 28 22 19 17 15 13 13 12 11 10 10 12
20 27 24 24 25 21 23 15 21 19 20 15 16 20 23 9 9 8 9 9 9 4 2 4 8 8 14 25 34 34 36 33 29 25 22 21 19 18 14 12 10 9 11 12
8 15 21 21 18 23 19 16 14 12 17 19 18 19 8 14 14 13 11 11 7 7 4 4 6 6 9 13 30 31 34 32 27 26 24 22 20 18 16 15 14 13 16 18
10 8 17 19 20 16 13 14 16 13 10 14 14 14 14 5 15 7 11 13 13 10 11 8 6 3 7 7 25 24 27 29 25 25 25 23 21 19 17 16 14 14 15 16
12 6 13 23 23 24 19 19 18 9 15 12 14 14 8 12 12 11 13 11 11 10 7 10 7 7 9 10 20 20 20 20 22 25 24 22 20 18 17 15 15 16 17 18
11 6 12 17 19 21 24 19 15 15 14 18 14 12 7 10 5 7 9 7 8 8 5 10 12 8 9 12 15 19 17 20 22 25 22 21 20 19 18 18 18 18 18 19
7 10 14 14 17 15 13 21 16 12 11 13 15 20 23 18 3 6 4 3 12 12 9 7 12 13 15 19 19 23 25 22 18 18 23 22 24 22 19 16 15 17 19 21
13 12 18 22 24 26 25 24 21 17 22 18 15 25 22 19 13 19 18 11 13 11 2 9 6 8 15 18 18 17 22 25 25 22 18 17 16 14 13 15 17 18 19 20
11 9 17 19 21 23 28 26 25 25 16 24 24 25 17 17 19 9 11 4 10 10 13 22 6 10 7 6 12 20 20 20 18 19 18 15 13 13 15 16 17 19 21 21
17 15 16 19 20 20 19 23 26 26 24 16 17 23 18 17 19 5 13 10 12 12 15 17 14 7 7 7 7 5 7 18 15 10 10 12 11 13 15 16 17 18 19 21
22 20 14 15 19 21 16 19 22 21 25 23 24 22 22 19 16 17 12 10 8 13 10 7 12 18 17 17 15 9 12 15 15 12 11 9 12 15 14 14 15 19 19 21
17 19 16 15 17 20 23 20 19 20 23 18 19 22 22 19 15 17 11 11 9 11 10 7 11 18 20 19 18 20 2 6 8 9 7 9 13 13 11 14 16 17 20 23
9 4 10 16 17 19 21 25 26 25 22 22 21 18 17 14 11 11 14 12 12 11 13 14 13 17 19 20 24 9 3 5 5 4 8 8 7 11 14 15 16 19 20 24
12 7 11 11 10 8 20 23 23 18 14 17 18 17 18 11 11 12 13 17 11 11 13 14 15 17 18 21 23 3 5 4 5 4 2 5 10 13 12 16 17 19 22 23
15 11 12 12 15 20 6 15 20 5 12 13 14 15 12 9 14 15 12 13 12 10 14 17 16 15 23 21 5 8 5 4 3 1 4 9 9 11 15 17 18 18 20 23
14 10 11 13 9 11 11 12 8 7 11 12 12 13 12 11 12 13 13 1 10 12 14 18 17 24 9 10 12 9 5 4 1 4 7 9 11 13 15 14 17 17 19 18
18 18 8 14 15 18 20 18 16 14 19 11 14 14 13 14 15 12 9 8 9 12 15 15 16 12 11 11 8 9 8 4 1 6 8 10 11 13 12 12 15 16 17 19
13 16 20 22 22 19 22 21 19 17 12 10 21 17 20 16 15 12 11 7 11 15 11 16 14 12 13 11 11 8 5 2 6 6 8 8 11 11 12 12 13 17 18 14
13 20 15 17 20 17 21 14 19 18 13 13 15 14 16 15 7 16 12 9 15 17 12 12 15 7 16 15 13 8 5 2 4 7 6 7 9 11 12 14 16 17 22 25
Wind_Direction
215 229 230 230 229 245 248 254 242 210 250 237 209 208 209 255 241 185 194 201 200 199 186 171 175 163 157 160 168 175 164 164 160 162 163 164 177 169 165 185 193 343 285 326
234 225 241 239 235 234 241 256 263 265 228 244 204 215 232 221 249 204 190 200 209 197 194 174 171 165 163 164 174 178 173 174 171 172 179 181 184 162 160 166 227 279 268 324
232 238 227 229 250 239 238 235 249 261 271 266 260 227 223 246 233 245 211 208 215 213 193 182 173 167 167 169 176 183 181 182 176 180 190 161 167 161 195 192 227 184 219 288
245 250 258 230 248 254 247 247 262 267 252 256 223 244 237 240 252 234 241 199 207 211 204 185 177 173 171 176 177 182 185 183 186 185 180 184 184 194 169 156 180 208 298 269
254 244 248 241 235 256 252 244 243 233 249 260 253 237 237 227 225 231 222 221 218 223 215 189 180 178 179 177 177 181 186 187 192 197 184 190 194 198 184 175 213 268 285 266
257 266 266 241 250 242 257 246 251 271 232 241 248 250 238 242 252 240 213 200 207 208 219 200 189 178 183 183 179 177 180 187 192 200 203 192 202 199 174 188 213 256 264 266
256 256 253 262 249 249 231 233 241 230 238 234 235 242 246 260 249 247 221 196 198 198 204 198 195 198 185 183 182 173 174 180 187 194 208 210 203 192 201 215 234 241 265 272
255 238 244 233 224 245 201 222 232 232 233 238 231 243 241 239 259 178 53 143 136 148 185 220 245 237 207 178 176 169 172 176 180 189 198 212 212 207 218 226 230 245 251 269
245 257 263 228 232 213 244 214 231 253 263 263 263 244 219 183 116 139 143 131 115 127 232 287 264 226 220 180 175 171 171 172 179 188 197 208 211 213 217 226 232 250 268 274
292 292 262 266 281 216 218 250 243 223 241 256 259 264 276 176 194 173 173 158 177 123 127 228 268 272 267 206 174 171 162 167 175 188 198 206 211 217 227 240 249 255 265 276
318 287 268 277 260 249 211 216 245 275 231 264 248 254 283 295 191 206 189 181 155 154 201 162 225 190 225 177 147 156 156 161 177 193 198 203 212 216 228 231 242 254 266 271
11 309 277 255 262 269 260 237 224 236 254 246 247 242 268 45 101 220 183 166 132 155 165 146 136 160 193 144 144 156 171 178 186 195 198 202 210 218 228 235 244 257 263 269
352 284 282 267 264 273 270 253 251 260 228 241 250 250 229 156 89 100 142 150 160 155 177 146 138 160 163 156 155 163 181 197 200 189 195 204 212 218 225 236 247 254 263 270
326 266 267 262 273 308 308 309 333 330 294 223 244 272 255 264 77 28 27 248 171 173 185 191 160 162 172 169 179 178 181 198 206 198 198 205 209 217 231 240 253 263 269 271
331 302 303 280 278 285 284 284 284 269 275 256 237 221 254 270 85 50 340 308 347 351 251 190 209 173 168 169 174 186 185 191 195 199 212 215 212 220 237 251 259 266 271 274
286 290 301 290 290 283 283 278 275 270 242 276 274 265 244 236 105 85 294 299 348 333 352 329 252 195 207 219 183 195 201 205 198 196 201 209 220 233 246 253 264 270 273 275
275 281 285 280 285 287 270 268 267 270 271 257 264 296 300 306 324 109 162 270 188 228 207 241 270 341 18 214 205 244 249 203 193 204 215 221 236 250 256 263 271 277 282 284
268 262 260 266 277 263 265 272 282 280 273 275 279 276 279 291 304 321 326 317 317 297 295 334 326 338 344 341 333 269 268 186 179 192 219 234 254 260 270 279 287 289 287 287
257 253 255 253 255 267 271 264 261 266 274 275 279 268 271 282 317 292 306 317 316 336 334 326 335 339 341 338 329 326 189 171 177 200 213 246 259 271 285 291 289 294 298 290
228 276 257 253 253 250 252 254 259 272 271 279 281 284 282 293 277 288 322 357 341 334 332 331 338 328 324 324 321 295 217 160 157 207 244 258 280 297 287 287 294 291 289 290
283 224 220 256 254 254 274 277 281 260 263 290 276 269 275 305 293 315 281 287 287 313 315 306 317 306 297 303 307 199 139 161 214 232 265 294 288 283 287 288 284 286 287 289
269 263 264 262 260 267 281 310 263 349 313 303 333 308 312 323 317 325 311 331 328 298 295 309 307 282 316 285 147 121 172 196 111 7 283 276 282 292 285 283 284 288 293 290
273 260 271 256 258 269 255 264 260 303 283 291 290 288 295 285 284 299 311 301 294 295 302 296 328 323 292 140 143 152 167 138 100 280 278 290 285 281 283 291 295 298 295 305
290 287 288 278 269 274 271 266 267 253 239 247 261 264 276 278 251 273 288 290 292 299 280 311 310 295 165 145 149 122 122 115 258 268 273 276 279 281 286 299 302 307 320 317
258 290 289 288 275 269 253 259 264 261 143 230 256 256 247 267 267 247 286 259 295 278 287 298 319 226 162 165 149 137 127 159 248 258 264 277 284 304 305 310 324 314 310 314
259 259 263 266 274 281 281 272 265 263 224 213 245 257 262 271 227 275 268 238 236 269 279 317 297 229 165 158 130 134 158 207 249 270 279 301 309 308 320 326 323 324 317 314